星链-4694 (STARLINK-4694 )

导读

STARLINK-4694是美国SpaceX星链(Starlink)星座中的一颗互联网通信卫星,于2022年9月5日由猎鹰9号火箭发射,归属星链Group 4-16组网任务,同批次共发射48颗卫星。卫星质量约297kg,运行在高度约548公里的近地轨道,主要为全球提供低延迟宽带互联网接入服务,星链星座采用Ku/Ka/V频段及激光星间链路,具备覆盖广泛、通信速率高的特点。

基本信息
目录编号:
53708
目录名称:
STARLINK-4694
国际标识:
2022-107J
轨道中心:
EARTH
卫星名称:
星链-4694
卫星全名:
星链-4694 (STARLINK-4694 )
卫星状态:
在轨 (已飞行1381 天)
发射日期:
2022-09-05 UTC
国别 :
美国 (US)
星等 :
--
轨道信息
数据来源 国际轨道数据 AOE轨道数据
星历时间 2026-06-17T10:20:48+0800
6小时前
查看轨道信息
2026-06-15T05:00:00+0800
2天前
查看轨道信息
半长轴 6917.914km 6917.853km
偏心率 0.0001444 0.0001584
轨道倾角 53.161° 53.159°
近地点辐角 91.186° 77.069°
升交点赤经 142.632° 152.626°
平近点角 268.929° 82.819°
近地点 538.778km 538.62km
远地点 540.776km 540.812km
周期 95.438分钟 95.437分钟
每日圈数 15.088292 15.08849
详细信息
固有亮度:
5
最大亮度:
2.5
卫星平台:
Starlink v1.5
覆盖范围:
全球
运营商:
太空探索技术公司
运营商所在国:
美国
制造商(研发单位):
太空探索技术公司
制造商所在国:
美国
使用方式:
暂无
卫星简介
星链(Starlink)计划是由太空探索技术公司(SpaceX)提出的一个巨型低轨卫星互联网星座项目,计划在2019年至2024年间在太空搭建由约1.2万颗卫星组成的“星链”网络,其中1584颗将部署在地球上空550千米处的近地轨道,并从2020年开始工作。该卫星仍在工作。
2D轨道图
3D轨道图
轨道高度分析图
轨道倾角分析图
轨道综合分析图
查看轨道综合分析图